This demonstration page uses our WeatherBlox Daily Observations layout. Learn more.

Left ArrowRight Arrow

39.29038, -76.61219

Hourly Observations for March 15, 2018

Temp ( °F °C ) Dew Point ( °F °C ) Humidity (%) Winds ( mph kmh ) Pressure ( in mb ) Visibility ( mi km ) Precip ( " mm )
12:54 am 00:54 undefined 36 2.2 16 -8.9 44 44 undefined N/A 29.80 1009 N/A 0.00 0.00
1:54 am 01:54 undefined 36 2.2 16 -8.9 44 44 undefined N/A 29.80 1009 N/A 0.00 0.00
2:54 am 02:54 undefined 36 2.2 16 -8.9 44 44 undefined N/A 29.79 1009 N/A 0.00 0.00
3:54 am 03:54 undefined 35 1.7 16 -8.9 46 46 undefined N/A 29.77 1008 N/A 0.00 0.00
4:54 am 04:54 undefined 35 1.7 17 -8.3 48 48 undefined N/A 29.76 1008 N/A 0.00 0.00
5:54 am 05:54 undefined 34 1.1 18 -7.8 52 52 undefined N/A 29.77 1008 N/A 0.00 0.00
6:54 am 06:54 undefined 34 1.1 18 -7.8 52 52 undefined N/A 29.76 1008 N/A 0.00 0.00
7:54 am 07:54 undefined 35 1.7 18 -7.8 50 50 undefined N/A 29.76 1008 N/A 0.00 0.00
8:54 am 08:54 undefined 37 2.8 17 -8.3 44 44 undefined N/A 29.75 1007 N/A 0.00 0.00
9:54 am 09:54 undefined 42 5.6 18 -7.8 38 38 undefined N/A 29.73 1007 N/A 0.00 0.00
10:54 am 10:54 undefined 44 6.7 17 -8.3 34 34 undefined N/A 29.70 1006 N/A 0.00 0.00
11:54 am 11:54 undefined 47 8.3 19 -7.2 33 33 undefined N/A 29.68 1005 N/A 0.00 0.00
12:54 pm 12:54 undefined 45 7.2 21 -6.1 39 39 undefined N/A 29.67 1005 N/A 0.00 0.00
1:54 pm 13:54 undefined 48 8.9 21 -6.1 34 34 undefined N/A 29.64 1004 N/A 0.00 0.00
2:54 pm 14:54 undefined 50 10 23 -5 35 35 undefined N/A 29.62 1003 N/A 0.00 0.00
3:54 pm 15:54 undefined 49 9.4 24 -4.4 38 38 undefined N/A 29.61 1003 N/A 0.00 0.00
4:54 pm 16:54 undefined 49 9.4 21 -6.1 33 33 undefined N/A 29.62 1003 N/A 0.00 0.00
5:54 pm 17:54 undefined 48 8.9 21 -6.1 34 34 undefined N/A 29.64 1004 N/A 0.00 0.00
6:54 pm 18:54 undefined 48 8.9 21 -6.1 34 34 undefined N/A 29.66 1004 N/A 0.00 0.00
7:54 pm 19:54 undefined 47 8.3 19 -7.2 33 33 undefined N/A 29.68 1005 N/A 0.00 0.00
8:54 pm 20:54 undefined 45 7.2 21 -6.1 39 39 undefined N/A 29.69 1006 N/A 0.00 0.00
9:54 pm 21:54 undefined 43 6.1 22 -5.6 43 43 undefined N/A 29.70 1006 N/A 0.00 0.00
10:54 pm 22:54 undefined 42 5.6 22 -5.6 45 45 undefined N/A 29.71 1006 N/A 0.00 0.00
11:54 pm 23:54 undefined 40 4.4 22 -5.6 49 49 undefined N/A 29.73 1007 N/A 0.00 0.00

Powered by AerisWeather